Content
SEND FEEDBACK

Daily
Averages
Monthly
Summary
United States of America

ST. LOUIS, MISSOURI


Home > North America > United States > Missouri
Elevation: 535 feet     Latitude: 38 45N     Longitude: 090 22W

WEATHER
 
SELECT A DAY
Number of Records: 196,207;   Date Range: 1/1/95 - 7/7/14
 
SHARE

PRINT THIS DATA

[ ← Previous Day ]
WEATHER ALMANAC - OCTOBER 1, 2013
[ Next Day → ]
[ °C ]   °F
Weather ElementAverageHighLow
Temperature71.3 °F82.9 °F (3:54 pm)62.1 °F (1:54 am)
Dewpoint64.7 °F66.9 °F (11:54 am)60.1 °F (1:54 am)
Humidity80.9 %96 % (2:54 am)54 % (3:54 pm)
Barometer29.97 in30.02 in (10:39 am)29.93 in (2:54 am)
Wind Speed4.1 mph9.2 mph (11:24 am)
Weather ElementAverage
Visibility9.7 mi
Wind DirectionESE (122.6 °)

Weather ElementTotal
Precipitation---
Cooling Degree Days7.5 (Base 65)
Growing Degree Days22.5 (Base 50)
Averaged from 31 records on October 1, 2013
WEATHER CONDITIONS BREAKOUT
WIND DIRECTION BREAKOUT
WEATHER BY HOUR - OCTOBER 1, 2013
[ °C ]   °F
Local TimeTemperatureDewpointHumidityBarometerVisibilityWind DirectionWind SpeedGust SpeedPrecipitationEventsConditions
1:54 AM62.1 °F60.1 °F93 %29.94 in10.0 miCalmOvercast
2:54 AM62.1 °F61.0 °F96 %29.93 in8.0 miCalmOvercast
3:49 AM64.4 °F62.6 °F94 %29.94 in10.0 miSSE (150°)4.6 mphMostly Cloudy
3:54 AM64.0 °F62.1 °F93 %29.93 in10.0 miSE (140°)3.5 mphMostly Cloudy
4:54 AM64.9 °F63.0 °F93 %29.94 in10.0 miCalmOvercast
5:21 AM64.4 °F62.6 °F94 %29.96 in10.0 miCalmScattered Clouds
5:32 AM64.4 °F62.6 °F94 %29.97 in10.0 miCalmMostly Cloudy
5:54 AM64.9 °F63.0 °F93 %29.96 in10.0 miCalmOvercast
6:05 AM64.4 °F62.6 °F94 %29.97 in10.0 miSE (130°)3.5 mphOvercast
6:54 AM66.0 °F63.0 °F90 %29.97 in10.0 miCalmOvercast
7:04 AM66.2 °F62.6 °F88 %29.99 in9.0 miCalmOvercast
7:54 AM66.9 °F64.0 °F90 %29.99 in8.0 miCalmOvercast
8:54 AM68.0 °F64.9 °F90 %30.01 in8.0 miSouth (190°)5.8 mphOvercast
9:54 AM69.1 °F64.9 °F87 %30.01 in8.0 miSouth (180°)3.5 mphOvercast
10:39 AM71.6 °F66.2 °F83 %30.02 in10.0 miSouth (190°)4.6 mphOvercast
10:54 AM72.0 °F66.0 °F81 %30.00 in10.0 miSSW (200°)8.1 mphOvercast
11:24 AM73.4 °F66.2 °F78 %30.01 in10.0 miWSW (250°)9.2 mphOvercast
11:54 AM75.9 °F66.9 °F74 %29.99 in10.0 miSSW (200°)9.2 mphOvercast
12:54 PM77.0 °F66.9 °F71 %29.98 in10.0 miSSW (200°)5.8 mphOvercast
1:54 PM80.1 °F66.9 °F64 %29.96 in10.0 miSouth (180°)9.2 mphMostly Cloudy
2:54 PM81.0 °F66.0 °F60 %29.95 in10.0 miSouth (190°)8.1 mphMostly Cloudy
3:01 PM80.6 °F66.2 °F61 %29.96 in10.0 miSouth (190°)5.8 mphPartly Cloudy
3:54 PM82.9 °F64.9 °F54 %29.93 in10.0 miSouth (170°)6.9 mphPartly Cloudy
4:54 PM82.9 °F64.9 °F54 %29.93 in10.0 miSouth (170°)8.1 mphScattered Clouds
5:54 PM81.0 °F64.9 °F58 %29.93 in10.0 miSouth (170°)4.6 mphScattered Clouds
6:54 PM78.1 °F66.0 °F66 %29.94 in10.0 miSSE (160°)3.5 mphScattered Clouds
7:54 PM75.0 °F66.9 °F76 %29.95 in10.0 miSouth (180°)5.8 mphClear
8:54 PM73.9 °F66.9 °F79 %29.96 in10.0 miSouth (180°)5.8 mphClear
9:54 PM72.0 °F66.9 °F84 %29.98 in10.0 miSouth (180°)6.9 mphClear
10:54 PM71.1 °F66.9 °F87 %29.99 in10.0 miSSW (200°)3.5 mphClear
11:54 PM70.0 °F66.9 °F90 %29.99 in10.0 miCalmScattered Clouds
Hourly data recorded from KSUS, located miles away from St. Louis, Missouri







STORIES FROM OUR PARTNERS